STARLINK-31734 (59534 NORAD) Tracking and Keplerian Element Data

This shows tracking and keplerian element data for the satellite.

Feedback or suggestion? Click here.




ElementValue
Catalog59534
NameSTARLINK-31734
Epoch Orbit897
Epoch Day159.94569828
Epoch Year2024
RAAN28.4973
Inclination43.0067
Eccentricity0.0001074
Argument of Perigee351.2925
Mean Anonmoly8.7913
Mean Motion15.40714562
Decay Rate3.303E-05
L11 59534U 24074A 24159.94569828 .00003303 00000+0 86262-4 0 9991
L22 59534 43.0067 28.4973 0001074 351.2925 8.7913 15.40714562 8977



Live tracking and technical data element details for STARLINK-31734 (NORAD 59534). STARLINK-31734 can be tracked NOW for your location showing map with azimuth and elevation plus other details from your city location.







IsCatalogInMostPopularTable: catalog: 59534, numindb: 11
Update: records affected: 1



GetName: 59534 STARLINK-31734

Hit Count: updated at: Fri, 14 Jun 2024 19:39:28 GMT